Regional Weather Roundup
Issued by NWS

Home | Current Version | Previous Version | Text Only | Print | Product List | Glossary On
Versions: 1 2 3 4 5 6 7 8 9 10 11 12 13 14 15 16 17 18 19 20 21 22 23 24 25 26 27 28 29 30 31 32 33 34 35 36 37 38 39 40 41 42 43 44 45 46 47 48 49 50
000
ASUS43 KFSD 020710
RWRSD

WEATHER ROUNDUP FOR SOUTH DAKOTA
NATIONAL WEATHER SERVICE SIOUX FALLS SD
200 AM CDT THU APR 02 2015

NOTE: "FAIR" INDICATES FEW OR NO CLOUDS BELOW 12,000 FEET WITH NO
SIGNIFICANT WEATHER AND/OR OBSTRUCTIONS TO VISIBILITY.


SDZ001>005-009-010-012>017-020800-
NORTHWEST AND NORTH CENTRAL SOUTH DAKOTA

CITY           SKY/WX    TMP DP  RH WIND       PRES   REMARKS
BUFFALO          N/A     30  16  56 W13       29.74F WCI  20
FAITH            N/A     36  12  37 W14       29.79S
MOBRIDGE       PTCLDY    36  23  59 CALM      29.73R
$$

SDZ012>016-024>037-041>051-057-063-072>074-020800-
SOUTHWEST AND SOUTH CENTRAL SOUTH DAKOTA

CITY           SKY/WX    TMP DP  RH WIND       PRES   REMARKS
RAPID CTY ARPT CLEAR     34  12  40 W6        29.85S WCI  29
PIERRE         CLOUDY    39  21  48 NW8       29.80R
CUSTER         CLEAR     27   7  42 W5        29.86F WCI  22
ELLSWORTH AFB  CLEAR     34  11  38 W10       29.83S WCI  26
PHILIP         PTCLDY    32  11  41 W6        29.84R WCI  26
PINE RIDGE     CLEAR     30  18  60 W6        29.88R WCI  24
SPEARFISH      FAIR      39   7  26 W13       29.87R
WINNER         FAIR      47  20  34 W5        29.83R
$$

SDZ004>011-016>023-039-040-020800-
NORTHEAST SOUTH DAKOTA

CITY           SKY/WX    TMP DP  RH WIND       PRES   REMARKS
ABERDEEN       CLOUDY    35  23  61 W9        29.77R WCI  28
WATERTOWN      CLOUDY    42  31  64 W5        29.75R
BROOKINGS      CLOUDY    45  32  61 CALM      29.77S
SISSETON         N/A     45  28  51 NW10      29.72R
$$

SDZ017-020-022-023-036>040-048>070-020800-
SOUTHEAST SOUTH DAKOTA

CITY           SKY/WX    TMP DP  RH WIND       PRES   REMARKS
SIOUX FALLS    CLOUDY    51  30  44 NW5       29.79R
HURON          CLOUDY    39  27  62 NW3       29.78R
CHAMBERLAIN    CLOUDY    45  24  43 NW5       29.81R
MITCHELL       CLOUDY    45  27  49 NW7       29.80R
YANKTON        CLOUDY    52  28  40 NW9       29.81S
$$

ABBREVIATIONS USED IN REMARKS
   TC - TEMPERATURE IN CELSIUS
  WCI - WIND CHILL INDEX
   HX - HEAT INDEX
  VSB - VISIBILITY




USA.gov is the U.S. government's official web portal to all federal, state and local government web resources and services.